This is the latest recevied weather packets stored in our database for station/object AB4KY. If no packets are shown the sender has not sent any weather packets the latest 10 day(s).
| Time | Temp. | Humidity | Pressure | Rain* | Wind** | Luminosity | Snow |
|---|---|---|---|---|---|---|---|
| 1778066444 | 6.67° C | 99% | 1009.2 hPa | 0 mm | - | 16 W/m² | - |
| 1778066142 | 6.67° C | 99% | 1008.6 hPa | 0 mm | - | 12 W/m² | - |
| 1778065839 | 6.67° C | 99% | 1008.8 hPa | 0 mm | - | 11 W/m² | - |
| 1778065536 | 6.67° C | 99% | 1008.5 hPa | 0 mm | - | 10 W/m² | - |
| 1778065233 | 6.67° C | 99% | 1008.6 hPa | 0 mm | - | 7 W/m² | - |
| 1778064929 | 6.11° C | 99% | 1008.6 hPa | 0 mm | - | 2 W/m² | - |
| 1778064627 | 6.11° C | 99% | 1008.4 hPa | 0 mm | - | 0 W/m² | - |
| 1778064325 | 6.11° C | 99% | 1008.5 hPa | 0 mm | - | 0 W/m² | - |
| 1778064022 | 6.11° C | 99% | 1008.2 hPa | 0 mm | - | 0 W/m² | - |
| 1778063719 | 6.11° C | 99% | 1008.1 hPa | 0 mm | - | 0 W/m² | - |
| 1778063416 | 6.11° C | 99% | 1008.4 hPa | 0 mm | - | 0 W/m² | - |
| 1778063115 | 6.11° C | 99% | 1007.7 hPa | 0 mm | - | 0 W/m² | - |
| 1778062811 | 6.67° C | 99% | 1007.9 hPa | 0 mm | - | 0 W/m² | - |
| 1778062508 | 6.67° C | 99% | 1007.5 hPa | 0 mm | - | 0 W/m² | - |
| 1778062205 | 6.67° C | 99% | 1007.7 hPa | 0 mm | - | 0 W/m² | - |
| 1778061903 | 7.22° C | 99% | 1007.7 hPa | 0 mm | - | 0 W/m² | - |
| 1778061601 | 7.22° C | 99% | 1007.5 hPa | 0 mm | - | 0 W/m² | - |
| 1778061300 | 7.22° C | 99% | 1007.8 hPa | 0 mm | - | 0 W/m² | - |
| 1778060995 | 7.22° C | 99% | 1007.7 hPa | 0 mm | - | 0 W/m² | - |
| 1778060694 | 7.22° C | 99% | 1007.6 hPa | 0 mm | - | 0 W/m² | - |
| 1778060391 | 7.22° C | 99% | 1007.2 hPa | 0 mm | - | 0 W/m² | - |
| 1778060089 | 7.22° C | 99% | 1007.2 hPa | 0 mm | - | 0 W/m² | - |
| 1778059787 | 7.78° C | 99% | 1007 hPa | 0 mm | - | 0 W/m² | - |
| 1778059484 | 7.22° C | 99% | 1007.2 hPa | 0 mm | - | 0 W/m² | - |
| 1778059180 | 7.78° C | 99% | 1006.8 hPa | 0 mm | - | 0 W/m² | - |
* Rain latest hour (hover to see other rain measurements)
** Current wind speed in m/s (hover to see current wind gust speed)